STARLINK-35816

Last updated on Tue Dec 16 2025 00:02:05 GMT+0000 (Coordinated Universal Time)

1 66499U 25263Q 25349.33335648 .00051772 00000+0 12393-2 0 9991 2 66499 42.9997 110.2841 0001440 274.0974 346.8275 15.40674055 6058
UTC large
Height (km)
Speed (km/s)
/
Latitude / Longitude
Inclination (degrees)
Orbital Period (minutes)
Azimuth
Elevation
Range (km)
Doppler Factor

Next 0 passes for location: London (51.5072 / 0.1276)

Sorry there are no passes over London.